FW0954 Weather Reports


time (UTC)temp
C
wind
direction
speed
KPH
gust
KPH
rain 1hr
cm
rain 24hr
cm
rain mn
cm
humidity
%
barometer
mb
20260831150002 31 269 1.6 9.7 0.00 0.00 0.00 64 1017.5
20260831145503 31 271 3.2 9.7 0.00 0.00 0.00 65 1017.5
20260831145002 31 261 1.6 8.0 0.00 0.00 0.00 65 1017.4
20260831144503 31 238 1.6 8.0 0.00 0.00 0.00 67 1017.5
20260831144003 30 248 1.6 8.0 0.00 0.00 0.00 69 1017.5
20260831143503 30 248 1.6 8.0 0.00 0.00 0.00 69 1017.4
20260831142503 30 240 0.0 3.2 0.00 0.00 0.00 72 1017.4
20260831142002 29 235 0.0 6.4 0.00 0.00 0.00 73 1017.3
20260831141502 29 200 1.6 6.4 0.00 0.00 0.00 73 1017.3
20260831140502 28 192 1.6 6.4 0.00 0.00 0.00 74 1017.4
20260831140003 28 198 1.6 6.4 0.00 0.00 0.00 76 1017.4
20260831135502 27 191 1.6 6.4 0.00 0.00 0.00 77 1017.4
20260831135002 27 185 1.6 6.4 0.00 0.00 0.00 78 1017.3
20260831134503 27 189 0.0 4.8 0.00 0.00 0.00 79 1017.3
20260831134003 26 164 0.0 4.8 0.00 0.00 0.00 81 1017.1
20260831133502 26 164 0.0 4.8 0.00 0.00 0.00 82 1017.2
20260831132003 25 203 0.0 4.8 0.00 0.00 0.00 83 1016.9
20260831131502 25 204 0.0 4.8 0.00 0.00 0.00 83 1016.9
20260831131003 25 189 0.0 3.2 0.00 0.00 0.00 83 1016.7
20260831130503 25 0 0.0 0.0 0.00 0.00 0.00 83 1016.7
20260831125503 25 166 0.0 1.6 0.00 0.00 0.00 83 1016.6
20260831125003 24 0 0.0 0.0 0.00 0.00 0.00 83 1016.6
20260831124502 24 146 0.0 1.6 0.00 0.00 0.00 83 1016.5
20260831124003 24 157 0.0 4.8 0.00 0.00 0.00 83 1016.4
20260831123503 24 161 0.0 4.8 0.00 0.00 0.00 83 1016.4
20260831123003 24 0 0.0 0.0 0.00 0.00 0.00 82 1016.3
20260831122503 24 203 0.0 3.2 0.00 0.00 0.00 82 1016.3
20260831122002 24 203 0.0 3.2 0.00 0.00 0.00 82 1016.2
20260831121503 24 203 0.0 1.6 0.00 0.00 0.00 82 1016.1
20260831121002 24 202 0.0 3.2 0.00 0.00 0.00 82 1016.1
20260831120503 24 196 0.0 3.2 0.00 0.00 0.00 81 1016.0
20260831120002 24 179 0.0 3.2 0.00 0.00 0.00 81 1016.0
20260831115503 24 171 0.0 3.2 0.00 0.00 0.00 81 1016.0
20260831115003 24 163 0.0 3.2 0.00 0.00 0.00 81 1016.0
20260831114503 24 162 0.0 3.2 0.00 0.00 0.00 81 1015.8
20260831114003 24 158 0.0 1.6 0.00 0.00 0.00 80 1015.9
20260831113503 24 158 0.0 1.6 0.00 0.00 0.00 80 1015.7
20260831113002 24 158 0.0 1.6 0.00 0.00 0.00 79 1015.7
20260831112503 24 158 0.0 1.6 0.00 0.00 0.00 79 1015.6
20260831112003 25 0 0.0 0.0 0.00 0.00 0.00 78 1015.7
20260831111503 25 0 0.0 0.0 0.00 0.00 0.00 77 1015.5
20260831110503 25 0 0.0 0.0 0.00 0.00 0.00 76 1015.5
20260831110004 25 0 0.0 0.0 0.00 0.00 0.00 76 1015.5
20260831105503 25 0 0.0 0.0 0.00 0.00 0.00 75 1015.3
20260831105003 26 0 0.0 0.0 0.00 0.00 0.00 75 1015.4
20260831104503 26 0 0.0 0.0 0.00 0.00 0.00 75 1015.4
20260831104003 26 173 0.0 3.2 0.00 0.00 0.00 75 1015.3
20260831103503 26 175 0.0 3.2 0.00 0.00 0.00 74 1015.4
20260831103003 26 181 0.0 1.6 0.00 0.00 0.00 74 1015.3
20260831102003 26 0 0.0 0.0 0.00 0.00 0.00 73 1015.3
20260831101503 26 0 0.0 0.0 0.00 0.00 0.00 72 1015.4
20260831101003 26 181 0.0 1.6 0.00 0.00 0.00 72 1015.3
20260831100503 26 181 0.0 1.6 0.00 0.00 0.00 72 1015.3
20260831100003 26 181 0.0 3.2 0.00 0.00 0.00 71 1015.2
20260831095503 27 181 0.0 3.2 0.00 0.00 0.00 71 1015.2
20260831095003 27 179 0.0 3.2 0.00 0.00 0.00 70 1015.3
20260831094503 27 181 0.0 4.8 0.00 0.00 0.00 70 1015.4
20260831094003 27 195 1.6 4.8 0.00 0.00 0.00 70 1015.3
20260831093003 27 191 0.0 4.8 0.00 0.00 0.00 70 1015.2
20260831091503 27 183 0.0 4.8 0.00 0.00 0.00 69 1015.1
20260831091003 27 187 1.6 4.8 0.00 0.00 0.00 68 1015.0
20260831090503 27 184 0.0 4.8 0.00 0.00 0.00 68 1015.1
20260831090004 27 169 0.0 3.2 0.00 0.00 0.00 68 1014.9
20260831085503 27 166 0.0 3.2 0.00 0.00 0.00 68 1015.0
20260831085003 27 184 0.0 6.4 0.00 0.00 0.00 67 1015.0
20260831084003 28 177 1.6 6.4 0.00 0.00 0.00 67 1015.0
20260831083503 28 174 0.0 4.8 0.00 0.00 0.00 66 1014.9
20260831083003 28 182 1.6 6.4 0.00 0.00 0.00 66 1014.9
20260831082503 28 181 1.6 6.4 0.00 0.00 0.00 65 1014.8
20260831081503 28 181 1.6 6.4 0.00 0.00 0.00 65 1014.8
20260831081004 28 181 0.0 3.2 0.00 0.00 0.00 65 1014.7
20260831080503 28 206 0.0 4.8 0.00 0.00 0.00 64 1014.7
20260831080004 28 201 1.6 6.4 0.00 0.00 0.00 64 1014.6
20260831075503 28 201 1.6 6.4 0.00 0.00 0.00 64 1014.5
20260831075004 28 213 1.6 6.4 0.00 0.00 0.00 63 1014.4
20260831074503 28 207 1.6 6.4 0.00 0.00 0.00 63 1014.6
20260831074003 28 197 1.6 6.4 0.00 0.00 0.00 63 1014.6
20260831073503 28 199 1.6 8.0 0.00 0.00 0.00 63 1014.5
20260831073003 28 197 3.2 8.0 0.00 0.00 0.00 63 1014.4
20260831072503 28 195 3.2 8.0 0.00 0.00 0.00 63 1014.4
20260831072004 28 188 1.6 6.4 0.00 0.00 0.00 64 1014.4
20260831071503 28 185 1.6 9.7 0.00 0.00 0.00 64 1014.5
20260831070504 28 197 0.0 3.2 0.00 0.00 0.00 65 1014.4
20260831070003 28 198 0.0 3.2 0.00 0.00 0.00 65 1014.4
20260831065503 28 198 0.0 3.2 0.00 0.00 0.00 65 1014.4
20260831065003 28 199 0.0 1.6 0.00 0.00 0.00 65 1014.5
20260831064503 28 0 0.0 0.0 0.00 0.00 0.00 65 1014.4
20260831064004 28 198 0.0 3.2 0.00 0.00 0.00 64 1014.5
20260831063503 28 198 0.0 3.2 0.00 0.00 0.00 64 1014.5
20260831063003 28 199 0.0 4.8 0.00 0.00 0.00 64 1014.5
20260831062504 28 201 0.0 4.8 0.00 0.00 0.00 63 1014.5
20260831062003 28 201 0.0 3.2 0.00 0.00 0.00 63 1014.5
20260831061003 28 0 0.0 0.0 0.00 0.00 0.00 63 1014.5
20260831060004 28 201 0.0 1.6 0.00 0.00 0.00 63 1014.6
20260831055503 28 201 0.0 1.6 0.00 0.00 0.00 63 1014.6
20260831055004 28 0 0.0 0.0 0.00 0.00 0.00 62 1014.6
20260831054503 28 0 0.0 0.0 0.00 0.00 0.00 62 1014.6
20260831054004 29 202 0.0 1.6 0.00 0.00 0.00 61 1014.6
20260831053504 29 202 0.0 1.6 0.00 0.00 0.00 61 1014.6
20260831053003 29 202 0.0 1.6 0.00 0.00 0.00 61 1014.5
20260831052503 29 0 0.0 0.0 0.00 0.00 0.00 60 1014.5
20260831052003 29 0 0.0 0.0 0.00 0.00 0.00 60 1014.4
20260831051504 29 201 0.0 1.6 0.00 0.00 0.00 60 1014.3
20260831051004 30 201 0.0 1.6 0.00 0.00 0.00 59 1014.3
20260831050500 30 0 0.0 0.0 0.00 0.00 0.00 59 1014.3
20260831050001 30 0 0.0 0.0 0.00 0.00 0.00 59 1014.3
20260831045500 30 202 0.0 1.6 0.00 0.00 0.00 59 1014.3
20260831045000 30 202 0.0 3.2 0.00 0.00 0.00 59 1014.3
20260831044459 30 202 0.0 3.2 0.00 0.00 0.00 59 1014.3
20260831043959 30 201 0.0 1.6 0.00 0.00 0.00 59 1014.3
20260831043500 30 201 0.0 1.6 0.00 0.00 0.00 58 1014.3
20260831043000 30 0 0.0 0.0 0.00 0.00 0.00 58 1014.2
20260831042000 30 202 0.0 1.6 0.00 0.00 0.00 57 1014.2
20260831041500 30 202 0.0 1.6 0.00 0.00 0.00 57 1014.3
20260831041000 30 202 0.0 3.2 0.00 0.00 0.00 57 1014.3
20260831040501 30 202 0.0 3.2 0.00 0.00 0.00 57 1014.3
20260831040000 30 195 0.0 4.8 0.00 0.00 0.00 57 1014.1
20260831035500 30 181 0.0 4.8 0.00 0.00 0.00 57 1014.1
20260831035000 30 168 0.0 1.6 0.00 0.00 0.00 57 1014.1
20260831034500 30 168 0.0 3.2 0.00 0.00 0.00 57 1014.1
20260831034000 30 168 0.0 3.2 0.00 0.00 0.00 56 1014.0
20260831033500 30 168 0.0 1.6 0.00 0.00 0.00 56 1014.1
20260831032959 30 168 0.0 1.6 0.00 0.00 0.00 56 1014.0
20260831032500 31 168 0.0 1.6 0.00 0.00 0.00 56 1014.0
20260831032000 31 168 0.0 1.6 0.00 0.00 0.00 55 1014.0
20260831031500 31 168 0.0 3.2 0.00 0.00 0.00 55 1014.1
20260831031000 31 168 0.0 3.2 0.00 0.00 0.00 55 1014.2
20260831030500 31 168 0.0 3.2 0.00 0.00 0.00 55 1014.1
20260831025500 31 168 0.0 1.6 0.00 0.00 0.00 55 1013.9
20260831025000 31 0 0.0 0.0 0.00 0.00 0.00 54 1013.9
20260831024500 31 0 0.0 0.0 0.00 0.00 0.00 54 1013.9
20260831024000 31 168 0.0 1.6 0.00 0.00 0.00 54 1013.8
20260831023500 31 167 0.0 3.2 0.00 0.00 0.00 53 1013.7
20260831022500 31 164 0.0 1.6 0.00 0.00 0.00 53 1013.6
20260831022000 31 163 0.0 3.2 0.00 0.00 0.00 53 1013.6
20260831021500 31 163 0.0 3.2 0.00 0.00 0.00 53 1013.5
20260831020501 32 163 0.0 3.2 0.00 0.00 0.00 53 1013.3
20260831020000 32 0 0.0 0.0 0.00 0.00 0.00 52 1013.2
20260831015500 32 0 0.0 0.0 0.00 0.00 0.00 52 1013.1
20260831015000 32 0 0.0 0.0 0.00 0.00 0.00 52 1013.1
20260831014500 32 169 0.0 1.6 0.00 0.00 0.00 52 1013.0
20260831014000 32 169 0.0 1.6 0.00 0.00 0.00 51 1012.9
20260831013001 33 165 0.0 3.2 0.00 0.00 0.00 50 1012.9
20260831012500 33 163 0.0 3.2 0.00 0.00 0.00 50 1012.9
20260831012000 33 161 0.0 4.8 0.00 0.00 0.00 49 1012.8
20260831011500 33 166 0.0 4.8 0.00 0.00 0.00 49 1012.8
20260831010500 33 168 0.0 4.8 0.00 0.00 0.00 48 1012.8
20260831010000 34 176 0.0 4.8 0.00 0.00 0.00 47 1012.7
20260831005500 34 174 1.6 4.8 0.00 0.00 0.00 46 1012.7
20260831005000 34 168 0.0 4.8 0.00 0.00 0.00 46 1012.8
20260831004500 35 160 0.0 1.6 0.00 0.00 0.00 45 1012.6
20260831004001 35 169 0.0 4.8 0.00 0.00 0.00 44 1012.7
20260831003500 35 166 1.6 4.8 0.00 0.00 0.00 44 1012.6
20260831003000 36 163 1.6 4.8 0.00 0.00 0.00 44 1012.6
20260831002501 36 158 0.0 4.8 0.00 0.00 0.00 44 1012.5
20260831002000 36 151 0.0 8.0 0.00 0.00 0.00 44 1012.5
20260831001501 36 150 0.0 8.0 0.00 0.00 0.00 43 1012.6
20260831001000 37 155 0.0 3.2 0.00 0.00 0.00 42 1012.7
20260831000500 37 153 1.6 8.0 0.00 0.00 0.00 42 1012.6
20260831000000 37 155 1.6 9.7 0.00 0.00 0.00 42 1012.7
20260830235501 37 143 1.6 9.7 0.00 0.00 0.00 42 1012.7
20260830235000 37 111 0.0 8.0 0.00 0.00 0.00 42 1012.8
20260830234500 37 146 1.6 6.4 0.00 0.00 0.00 41 1012.7
20260830233500 37 128 1.6 6.4 0.00 0.00 0.00 42 1012.8
20260830233000 38 120 1.6 6.4 0.00 0.00 0.00 41 1012.8
20260830232500 38 144 1.6 8.0 0.00 0.00 0.00 41 1012.9
20260830232000 38 155 1.6 8.0 0.00 0.00 0.00 41 1012.8
20260830231500 38 161 1.6 9.7 0.00 0.00 0.00 40 1012.9
20260830231000 38 165 1.6 9.7 0.00 0.00 0.00 41 1012.9
20260830230501 38 171 1.6 6.4 0.00 0.00 0.00 40 1012.9
20260830230000 38 161 1.6 8.0 0.00 0.00 0.00 41 1013.0
20260830225501 38 162 1.6 8.0 0.00 0.00 0.00 41 1013.0
20260830225001 37 175 1.6 6.4 0.00 0.00 0.00 41 1013.1
20260830224500 37 179 1.6 6.4 0.00 0.00 0.00 41 1013.1
20260830224000 37 179 1.6 6.4 0.00 0.00 0.00 41 1013.1
20260830223501 37 182 1.6 6.4 0.00 0.00 0.00 41 1013.1
20260830223001 37 186 3.2 12.9 0.00 0.00 0.00 41 1013.1
20260830222001 37 183 4.8 12.9 0.00 0.00 0.00 41 1013.2
20260830221501 37 174 1.6 12.9 0.00 0.00 0.00 40 1013.1
20260830221000 37 116 1.6 6.4 0.00 0.00 0.00 42 1013.1
20260830220001 38 158 3.2 20.9 0.00 0.00 0.00 40 1013.0
20260830215501 38 145 1.6 11.3 0.00 0.00 0.00 40 1013.0
20260830215000 37 142 3.2 8.0 0.00 0.00 0.00 42 1013.2
20260830214501 37 163 1.6 8.0 0.00 0.00 0.00 41 1013.2
20260830214001 37 177 3.2 11.3 0.00 0.00 0.00 38 1013.2
20260830213001 38 168 1.6 11.3 0.00 0.00 0.00 37 1013.4
20260830212501 38 168 3.2 11.3 0.00 0.00 0.00 37 1013.4
20260830211501 39 157 3.2 12.9 0.00 0.00 0.00 36 1013.6
20260830211000 39 151 3.2 12.9 0.00 0.00 0.00 38 1013.4
20260830205001 38 183 6.4 20.9 0.00 0.00 0.00 38 1013.7
20260830204500 38 202 4.8 20.9 0.00 0.00 0.00 38 1013.8
20260830204001 38 196 4.8 12.9 0.00 0.00 0.00 38 1013.9
20260830203000 38 170 3.2 9.7 0.00 0.00 0.00 39 1014.0
20260830202501 38 168 3.2 9.7 0.00 0.00 0.00 40 1014.1
20260830201500 37 183 6.4 16.1 0.00 0.00 0.00 41 1014.4
20260830200501 38 176 3.2 12.9 0.00 0.00 0.00 41 1014.4
20260830200001 38 170 4.8 11.3 0.00 0.00 0.00 41 1014.5
20260830195001 37 181 4.8 16.1 0.00 0.00 0.00 41 1014.6
20260830194501 37 183 4.8 12.9 0.00 0.00 0.00 42 1014.7
20260830194000 37 166 4.8 19.3 0.00 0.00 0.00 42 1014.8
20260830193501 37 169 6.4 19.3 0.00 0.00 0.00 40 1014.9
20260830193001 38 173 4.8 16.1 0.00 0.00 0.00 41 1014.8
20260830192502 38 197 4.8 16.1 0.00 0.00 0.00 44 1014.8
20260830191502 37 196 6.4 19.3 0.00 0.00 0.00 43 1015.1
20260830191000 37 190 4.8 12.9 0.00 0.00 0.00 43 1015.2
20260830190501 37 183 6.4 14.5 0.00 0.00 0.00 44 1015.3
20260830190000 37 183 6.4 17.7 0.00 0.00 0.00 43 1015.4
20260830185501 37 185 4.8 17.7 0.00 0.00 0.00 44 1015.3
20260830185002 37 178 6.4 17.7 0.00 0.00 0.00 43 1015.5
20260830184501 37 176 6.4 17.7 0.00 0.00 0.00 44 1015.5
20260830184001 37 188 6.4 17.7 0.00 0.00 0.00 44 1015.6
20260830183500 37 183 6.4 16.1 0.00 0.00 0.00 44 1015.7
20260830183001 37 165 4.8 17.7 0.00 0.00 0.00 45 1015.5
20260830182501 37 172 4.8 17.7 0.00 0.00 0.00 45 1015.7
20260830182001 37 167 4.8 12.9 0.00 0.00 0.00 45 1015.8
20260830181501 37 178 6.4 20.9 0.00 0.00 0.00 46 1015.9
20260830181001 37 189 8.0 20.9 0.00 0.00 0.00 46 1016.0
20260830180501 37 188 8.0 17.7 0.00 0.00 0.00 46 1016.0
20260830180000 37 199 6.4 14.5 0.00 0.00 0.00 47 1016.2
20260830175501 37 203 6.4 14.5 0.00 0.00 0.00 47 1016.1
20260830175001 37 205 4.8 12.9 0.00 0.00 0.00 47 1016.3
20260830174501 36 202 4.8 14.5 0.00 0.00 0.00 48 1016.3
20260830174001 36 197 4.8 20.9 0.00 0.00 0.00 47 1016.3
20260830173500 36 182 6.4 20.9 0.00 0.00 0.00 48 1016.4
20260830173001 36 176 6.4 17.7 0.00 0.00 0.00 49 1016.5
20260830172502 36 184 6.4 17.7 0.00 0.00 0.00 49 1016.5
20260830172001 36 171 4.8 16.1 0.00 0.00 0.00 48 1016.6
20260830171001 36 185 6.4 19.3 0.00 0.00 0.00 51 1016.7
20260830170001 35 210 4.8 16.1 0.00 0.00 0.00 51 1016.8
20260830165501 35 200 6.4 16.1 0.00 0.00 0.00 51 1016.8
20260830165001 35 186 6.4 16.1 0.00 0.00 0.00 52 1016.8
20260830164502 35 186 4.8 16.1 0.00 0.00 0.00 52 1016.8
20260830164001 35 195 3.2 16.1 0.00 0.00 0.00 53 1017.0
20260830163501 35 185 4.8 16.1 0.00 0.00 0.00 53 1017.0
20260830163001 35 195 4.8 12.9 0.00 0.00 0.00 55 1017.0
20260830162501 35 225 3.2 11.3 0.00 0.00 0.00 56 1017.0
20260830162001 35 223 3.2 11.3 0.00 0.00 0.00 56 1017.2
20260830161502 35 221 3.2 8.0 0.00 0.00 0.00 56 1017.1
20260830161001 34 220 3.2 9.7 0.00 0.00 0.00 57 1017.0
20260830160501 34 221 4.8 11.3 0.00 0.00 0.00 57 1017.0
20260830160001 33 224 4.8 11.3 0.00 0.00 0.00 58 1017.0
20260830155502 33 208 4.8 11.3 0.00 0.00 0.00 58 1017.0
20260830155001 33 220 4.8 11.3 0.00 0.00 0.00 59 1017.0
20260830154001 33 219 3.2 9.7 0.00 0.00 0.00 59 1017.0
20260830153501 33 214 1.6 9.7 0.00 0.00 0.00 60 1017.2
20260830153001 32 217 3.2 11.3 0.00 0.00 0.00 61 1017.2
20260830152502 32 229 3.2 11.3 0.00 0.00 0.00 62 1017.2